GW3385 Weather Reports


time (UTC)temp
C
wind
direction
speed
KPH
gust
KPH
rain 1hr
cm
rain 24hr
cm
rain mn
cm
humidity
%
barometer
mb
20260508013551 16 188 6.4 16.1 0.00 0.00 0.00 83 1012.9
20260508013100 16 281 11.3 17.7 0.00 0.00 0.00 82 1012.8
20260508012555 17 244 11.3 17.7 0.00 0.00 0.00 81 1012.9
20260508012054 17 283 6.4 16.1 0.00 0.00 0.00 81 1012.8
20260508011558 17 179 6.4 16.1 0.00 0.00 0.00 81 1012.9
20260508011054 17 213 9.7 16.1 0.00 0.00 0.00 80 1013.0
20260508010554 17 267 8.0 16.1 0.00 0.00 0.00 78 1012.9
20260508010056 17 254 8.0 17.7 0.00 0.00 0.00 78 1012.9
20260508005558 17 264 4.8 17.7 0.00 0.00 0.00 77 1012.9
20260508005057 18 277 11.3 22.5 0.00 0.00 0.00 76 1013.0
20260508004556 18 234 9.7 22.5 0.00 0.00 0.00 74 1012.9
20260508004059 18 123 6.4 16.1 0.00 0.00 0.00 74 1012.9
20260508003551 18 186 8.0 16.1 0.00 0.00 0.00 73 1012.9
20260508003055 18 135 6.4 17.7 0.00 0.00 0.00 73 1012.8
20260508002555 18 191 8.0 20.9 0.00 0.00 0.00 73 1012.8
20260508002055 18 180 9.7 20.9 0.00 0.00 0.00 72 1012.8
20260508001612 18 164 8.0 16.1 0.00 0.00 0.00 72 1012.8
20260508001054 18 304 6.4 20.9 0.00 0.00 0.00 73 1012.8
20260508000556 18 279 9.7 20.9 0.00 0.00 0.00 72 1012.9
20260508000053 19 277 6.4 17.7 0.00 0.00 0.00 72 1012.9
20260507235557 19 212 4.8 16.1 0.00 0.00 0.00 73 1012.9
20260507235054 18 234 8.0 19.3 0.00 0.00 0.00 73 1012.9
20260507234557 18 196 6.4 20.9 0.00 0.00 0.00 75 1012.9
20260507234106 18 260 12.9 20.9 0.00 0.00 0.00 74 1013.0
20260507233555 18 274 11.3 19.3 0.00 0.00 0.00 74 1013.1
20260507233054 18 240 11.3 19.3 0.00 0.00 0.00 73 1013.1
20260507232555 18 267 8.0 20.9 0.00 0.00 0.00 74 1013.0
20260507232054 19 311 9.7 20.9 0.00 0.00 0.00 74 1013.1
20260507231556 19 196 8.0 16.1 0.00 0.00 0.00 74 1013.1
20260507231055 19 182 4.8 16.1 0.00 0.00 0.00 75 1013.1
20260507230555 18 312 4.8 16.1 0.00 0.00 0.00 76 1013.1
20260507230054 18 279 8.0 22.5 0.00 0.00 0.00 76 1013.3
20260507225555 18 288 9.7 22.5 0.00 0.00 0.00 77 1013.3
20260507225055 18 161 11.3 17.7 0.00 0.00 0.00 75 1013.2
20260507224558 18 166 9.7 19.3 0.00 0.00 0.00 76 1013.3
20260507224054 19 257 8.0 19.3 0.00 0.00 0.00 76 1013.3
20260507223554 19 218 9.7 20.9 0.00 0.00 0.00 76 1013.4
20260507223053 19 207 8.0 20.9 0.00 0.00 0.00 76 1013.4
20260507222553 19 281 8.0 25.7 0.00 0.00 0.00 74 1013.4
20260507222054 19 267 8.0 25.7 0.00 0.00 0.00 75 1013.4
20260507221554 19 183 9.7 22.5 0.00 0.00 0.00 73 1013.5
20260507221055 19 267 9.7 22.5 0.00 0.00 0.00 75 1013.5
20260507220556 19 265 9.7 27.4 0.00 0.00 0.00 74 1013.5
20260507220054 18 263 14.5 27.4 0.00 0.00 0.00 75 1013.6
20260507215555 18 265 9.7 20.9 0.00 0.00 0.00 74 1013.6
20260507215055 19 269 11.3 20.9 0.00 0.00 0.00 73 1013.7
20260507214600 19 261 14.5 22.5 0.00 0.00 0.00 72 1013.7
20260507214054 19 253 8.0 22.5 0.00 0.00 0.00 73 1013.8
20260507213556 19 271 11.3 24.1 0.00 0.00 0.00 73 1013.8
20260507213056 18 265 16.1 24.1 0.00 0.00 0.00 74 1013.9
20260507212553 19 220 8.0 19.3 0.00 0.00 0.00 74 1013.9
20260507212051 19 225 8.0 19.3 0.00 0.00 0.00 74 1013.9
20260507211555 19 291 11.3 19.3 0.00 0.00 0.00 73 1013.9
20260507211054 19 265 11.3 19.3 0.00 0.00 0.00 74 1014.0
20260507210558 19 264 8.0 19.3 0.00 0.00 0.00 74 1014.0
20260507210055 19 215 9.7 19.3 0.00 0.00 0.00 74 1014.1
20260507205555 19 171 9.7 20.9 0.00 0.00 0.00 72 1014.2
20260507205055 19 221 11.3 25.7 0.00 0.00 0.00 73 1014.2
20260507204558 19 192 12.9 25.7 0.00 0.00 0.00 73 1014.2
20260507204054 20 132 14.5 20.9 0.00 0.00 0.00 72 1014.1
20260507203555 20 208 6.4 22.5 0.00 0.00 0.00 73 1014.2
20260507203059 20 207 8.0 22.5 0.00 0.00 0.00 72 1014.3
20260507202557 20 219 9.7 20.9 0.00 0.00 0.00 73 1014.3
20260507202054 20 204 11.3 22.5 0.00 0.00 0.00 73 1014.3
20260507201559 19 177 8.0 22.5 0.00 0.00 0.00 73 1014.4
20260507201051 19 190 9.7 19.3 0.00 0.00 0.00 74 1014.4
20260507200555 19 266 9.7 17.7 0.00 0.00 0.00 72 1014.4
20260507200109 19 182 8.0 17.7 0.00 0.00 0.00 72 1014.6
20260507195554 19 282 9.7 17.7 0.00 0.00 0.00 73 1014.7
20260507195051 19 285 12.9 17.7 0.00 0.00 0.00 72 1014.6
20260507194555 19 304 6.4 16.1 0.00 0.00 0.00 73 1014.7
20260507194054 19 269 6.4 20.9 0.00 0.00 0.00 73 1014.8
20260507193554 19 196 9.7 20.9 0.00 0.00 0.00 73 1014.8
20260507193056 19 192 9.7 20.9 0.00 0.00 0.00 72 1014.8
20260507192554 19 184 6.4 19.3 0.00 0.00 0.00 72 1014.9
20260507192059 19 209 11.3 19.3 0.00 0.00 0.00 72 1014.9
20260507191558 19 323 6.4 17.7 0.00 0.00 0.00 73 1015.0
20260507191055 19 180 9.7 17.7 0.00 0.00 0.00 73 1015.0
20260507190555 19 211 6.4 17.7 0.00 0.00 0.00 73 1015.0
20260507190057 19 168 6.4 16.1 0.00 0.00 0.00 73 1015.0
20260507185554 19 192 8.0 16.1 0.00 0.00 0.00 72 1015.0
20260507185051 19 267 4.8 14.5 0.00 0.00 0.00 73 1015.1
20260507184603 19 183 6.4 14.5 0.00 0.00 0.00 73 1015.1
20260507184054 18 224 6.4 16.1 0.00 0.00 0.00 74 1015.1
20260507183554 18 179 8.0 16.1 0.00 0.00 0.00 74 1015.1
20260507183054 18 189 6.4 16.1 0.00 0.00 0.00 73 1015.1
20260507182556 18 214 6.4 12.9 0.00 0.00 0.00 73 1015.2
20260507182055 18 257 6.4 16.1 0.00 0.00 0.00 73 1015.2
20260507181602 18 207 4.8 16.1 0.00 0.00 0.00 73 1015.2
20260507181054 18 257 6.4 14.5 0.00 0.00 0.00 74 1015.2
20260507180555 18 195 8.0 14.5 0.00 0.00 0.00 74 1015.1
20260507180053 18 300 6.4 14.5 0.00 0.00 0.00 74 1015.0
20260507175558 18 271 6.4 22.5 0.00 0.00 0.00 74 1015.0
20260507175054 18 178 6.4 22.5 0.00 0.00 0.00 75 1015.0
20260507174559 18 176 9.7 17.7 0.00 0.00 0.00 74 1015.1
20260507174055 18 213 4.8 16.1 0.00 0.00 0.00 74 1015.0
20260507173554 18 260 8.0 14.5 0.00 0.00 0.00 74 1015.1
20260507173053 18 250 6.4 14.5 0.00 0.00 0.00 73 1015.2
20260507172558 18 288 4.8 11.3 0.00 0.00 0.00 73 1015.2
20260507172055 18 245 6.4 11.3 0.00 0.00 0.00 74 1015.1
20260507171606 18 0 3.2 9.7 0.00 0.00 0.00 74 1015.2
20260507171055 18 221 1.6 12.9 0.00 0.00 0.00 77 1015.1
20260507170555 18 277 3.2 12.9 0.00 0.00 0.00 77 1015.3
20260507170057 18 159 3.2 11.3 0.00 0.00 0.00 78 1015.2
20260507165554 17 183 3.2 14.5 0.00 0.00 0.00 78 1015.3
20260507165055 17 197 3.2 14.5 0.00 0.00 0.00 78 1015.3
20260507164558 17 238 6.4 14.5 0.00 0.00 0.00 79 1015.4
20260507164058 17 254 4.8 12.9 0.00 0.00 0.00 79 1015.4
20260507163554 17 177 3.2 14.5 0.00 0.00 0.00 80 1015.4
20260507163101 17 196 3.2 14.5 0.00 0.00 0.00 80 1015.5
20260507162554 17 244 3.2 11.3 0.00 0.00 0.00 80 1015.4
20260507162054 17 173 4.8 12.9 0.00 0.00 0.00 80 1015.4
20260507161604 17 172 4.8 12.9 0.00 0.00 0.00 80 1015.4
20260507161055 17 234 4.8 9.7 0.00 0.00 0.00 80 1015.5
20260507160555 17 192 3.2 9.7 0.00 0.00 0.00 79 1015.4
20260507160056 17 236 3.2 9.7 0.00 0.00 0.00 79 1015.4
20260507155554 17 268 3.2 9.7 0.00 0.00 0.00 80 1015.5
20260507155055 17 0 1.6 8.0 0.00 0.00 0.00 80 1015.6
20260507154604 17 352 4.8 8.0 0.00 0.00 0.00 80 1015.6
20260507154052 17 261 1.6 9.7 0.00 0.00 0.00 80 1015.6
20260507153552 17 195 1.6 9.7 0.00 0.00 0.00 80 1015.6
20260507153101 17 249 3.2 9.7 0.00 0.00 0.00 79 1015.5
20260507152552 17 231 1.6 6.4 0.00 0.00 0.00 80 1015.6
20260507152052 17 0 1.6 6.4 0.00 0.00 0.00 80 1015.6
20260507151554 17 182 1.6 6.4 0.00 0.00 0.00 80 1015.5
20260507151052 17 0 1.6 6.4 0.00 0.00 0.00 80 1015.6
20260507150553 17 255 0.0 4.8 0.00 0.00 0.00 81 1015.6
20260507150054 16 0 0.0 3.2 0.00 0.00 0.00 81 1015.6
20260507145553 16 0 0.0 1.6 0.00 0.00 0.00 82 1015.6
20260507145054 16 0 0.0 1.6 0.00 0.00 0.00 82 1015.5
20260507144557 15 0 0.0 3.2 0.00 0.00 0.00 82 1015.5
20260507144055 15 0 0.0 3.2 0.00 0.00 0.00 83 1015.5
20260507143552 15 0 0.0 0.0 0.00 0.00 0.00 84 1015.5
20260507143055 15 0 0.0 0.0 0.00 0.00 0.00 86 1015.5
20260507142553 15 0 0.0 0.0 0.00 0.00 0.00 86 1015.4
20260507142053 14 0 0.0 0.0 0.00 0.00 0.00 86 1015.4
20260507141558 14 0 0.0 1.6 0.00 0.00 0.00 87 1015.4
20260507141052 14 0 0.0 1.6 0.00 0.00 0.00 88 1015.3
20260507140556 14 0 0.0 0.0 0.00 0.00 0.00 89 1015.2
20260507140053 13 0 0.0 1.6 0.00 0.00 0.00 90 1015.2
20260507135556 13 0 0.0 1.6 0.00 0.00 0.00 90 1015.2
20260507135053 13 0 0.0 3.2 0.00 0.00 0.00 90 1015.2
20260507134557 12 0 0.0 3.2 0.00 0.00 0.00 90 1015.0
20260507134052 12 0 0.0 3.2 0.00 0.00 0.00 90 1015.0
20260507133553 12 0 0.0 3.2 0.00 0.00 0.00 90 1015.0
20260507133057 12 17 0.0 3.2 0.00 0.00 0.00 90 1014.9
20260507132552 12 0 0.0 3.2 0.00 0.00 0.00 89 1015.0
20260507132055 12 0 0.0 3.2 0.00 0.00 0.00 89 1015.0
20260507131603 12 5 0.0 3.2 0.00 0.00 0.00 89 1015.0
20260507131052 12 5 0.0 3.2 0.00 0.00 0.00 89 1014.9
20260507130552 12 0 0.0 1.6 0.00 0.00 0.00 89 1014.9
20260507130107 12 0 0.0 1.6 0.00 0.00 0.00 89 1014.9
20260507125555 12 0 0.0 1.6 0.00 0.00 0.00 89 1014.8
20260507125052 12 0 0.0 1.6 0.00 0.00 0.00 89 1014.8
20260507124556 12 0 0.0 0.0 0.00 0.00 0.00 88 1014.8
20260507124055 12 0 0.0 0.0 0.00 0.00 0.00 89 1014.7
20260507123555 12 0 0.0 1.6 0.00 0.00 0.00 88 1014.7
20260507123055 12 0 0.0 1.6 0.00 0.00 0.00 88 1014.7
20260507122554 12 0 0.0 3.2 0.00 0.00 0.00 89 1014.6
20260507122055 12 0 0.0 3.2 0.00 0.00 0.00 89 1014.6
20260507121604 12 5 0.0 3.2 0.00 0.00 0.00 89 1014.6
20260507121055 12 5 0.0 0.0 0.00 0.00 0.00 89 1014.6
20260507120557 12 0 0.0 4.8 0.00 0.00 0.00 89 1014.7
20260507120057 12 0 0.0 4.8 0.00 0.00 0.00 89 1014.7
20260507115555 12 0 1.6 3.2 0.00 0.00 0.00 89 1014.7
20260507115054 12 0 0.0 0.0 0.00 0.00 0.00 89 1014.7
20260507114613 12 0 0.0 0.0 0.00 0.00 0.00 89 1014.7
20260507114054 12 0 0.0 0.0 0.00 0.00 0.00 89 1014.7
20260507113555 12 0 0.0 0.0 0.00 0.00 0.00 89 1014.7
20260507113055 12 0 0.0 0.0 0.00 0.00 0.00 88 1014.8
20260507112557 12 0 0.0 0.0 0.00 0.00 0.00 89 1014.8
20260507112057 12 0 0.0 0.0 0.00 0.00 0.00 88 1014.7
20260507111552 12 0 0.0 0.0 0.00 0.00 0.00 88 1014.9
20260507111054 12 0 0.0 0.0 0.00 0.00 0.00 88 1014.9
20260507110555 12 0 0.0 0.0 0.00 0.00 0.00 88 1014.9
20260507105555 13 0 0.0 0.0 0.00 0.00 0.00 88 1014.9
20260507105054 13 0 0.0 0.0 0.00 0.00 0.00 89 1014.9
20260507104554 13 0 0.0 0.0 0.00 0.00 0.00 90 1014.9
20260507104055 13 0 0.0 0.0 0.00 0.00 0.00 89 1015.0
20260507103555 12 0 0.0 0.0 0.00 0.00 0.00 89 1015.1
20260507103054 12 0 0.0 0.0 0.00 0.00 0.00 89 1015.0
20260507102554 12 0 0.0 0.0 0.00 0.00 0.00 88 1015.0
20260507102054 12 0 0.0 1.6 0.00 0.00 0.00 89 1015.1
20260507101603 12 0 0.0 1.6 0.00 0.00 0.00 89 1015.1
20260507101055 12 0 0.0 4.8 0.00 0.00 0.00 88 1015.1
20260507100555 12 0 0.0 4.8 0.00 0.00 0.00 88 1015.1
20260507100055 12 44 0.0 0.0 0.00 0.00 0.00 88 1015.3
20260507095555 13 0 0.0 0.0 0.00 0.00 0.00 88 1015.1
20260507095056 13 0 0.0 0.0 0.00 0.00 0.00 88 1015.2
20260507094554 13 0 0.0 0.0 0.00 0.00 0.00 88 1015.3
20260507094056 13 0 0.0 0.0 0.00 0.00 0.00 88 1015.2
20260507093554 13 0 0.0 0.0 0.00 0.00 0.00 88 1015.3
20260507093057 13 0 0.0 0.0 0.00 0.00 0.00 89 1015.4
20260507092558 13 0 0.0 0.0 0.00 0.00 0.00 89 1015.3
20260507092054 13 0 0.0 0.0 0.00 0.00 0.00 89 1015.3
20260507091558 13 0 0.0 0.0 0.00 0.00 0.00 89 1015.5
20260507091054 13 0 0.0 1.6 0.00 0.00 0.00 89 1015.4
20260507090556 13 0 0.0 1.6 0.00 0.00 0.00 90 1015.5
20260507090057 13 0 0.0 3.2 0.00 0.00 0.00 89 1015.5
20260507085555 13 0 0.0 3.2 0.00 0.00 0.00 89 1015.6
20260507085055 13 0 0.0 3.2 0.00 0.00 0.00 89 1015.6
20260507084555 13 0 0.0 3.2 0.00 0.00 0.00 89 1015.7
20260507084059 13 0 0.0 4.8 0.00 0.00 0.00 89 1015.7
20260507083555 13 0 1.6 4.8 0.00 0.00 0.00 89 1015.7
20260507083055 13 49 0.0 4.8 0.00 0.00 0.00 88 1015.8
20260507082554 13 0 0.0 4.8 0.00 0.00 0.00 88 1015.8
20260507082058 13 0 0.0 3.2 0.00 0.00 0.00 88 1015.9
20260507081557 13 0 0.0 3.2 0.00 0.00 0.00 88 1016.0
20260507081054 13 0 0.0 4.8 0.00 0.00 0.00 89 1016.0
20260507080556 13 0 0.0 4.8 0.00 0.00 0.00 89 1015.9
20260507075554 13 0 1.6 4.8 0.00 0.00 0.00 90 1015.9
20260507075055 13 57 0.0 4.8 0.00 0.00 0.00 90 1015.9
20260507074609 13 0 0.0 6.4 0.00 0.00 0.00 90 1015.9
20260507074055 13 360 1.6 6.4 0.00 0.00 0.00 90 1015.9
20260507073555 13 338 1.6 4.8 0.00 0.00 0.00 90 1015.9
20260507073053 13 0 0.0 4.8 0.00 0.00 0.00 90 1016.0
20260507072555 13 0 0.0 4.8 0.00 0.00 0.00 90 1016.1
20260507072056 13 0 1.6 4.8 0.00 0.00 0.00 90 1016.2
20260507071554 13 0 0.0 4.8 0.00 0.00 0.00 90 1016.2
20260507071056 13 0 0.0 4.8 0.00 0.00 0.00 90 1016.2
20260507070555 13 0 1.6 4.8 0.00 0.00 0.00 90 1016.1
20260507070055 13 0 0.0 0.0 0.00 0.00 0.00 90 1016.2
20260507065555 13 0 0.0 0.0 0.00 0.00 0.00 90 1016.1
20260507065054 13 0 0.0 0.0 0.00 0.00 0.00 90 1016.2
20260507064554 13 0 0.0 0.0 0.00 0.00 0.00 90 1016.2
20260507064054 13 0 0.0 0.0 0.00 0.00 0.00 90 1016.3
20260507063555 13 0 0.0 0.0 0.00 0.00 0.00 90 1016.3
20260507063054 13 0 0.0 0.0 0.00 0.00 0.00 90 1016.2
20260507062555 13 0 0.0 1.6 0.00 0.00 0.00 90 1016.2
20260507062055 13 0 0.0 3.2 0.00 0.00 0.00 90 1016.2
20260507061552 13 0 0.0 4.8 0.00 0.00 0.00 90 1016.1
20260507061054 13 67 1.6 4.8 0.00 0.00 0.00 90 1016.1
20260507060554 14 63 1.6 4.8 0.00 0.00 0.00 89 1016.1
20260507060054 14 74 0.0 3.2 0.00 0.00 0.00 89 1016.2
20260507055555 14 92 0.0 4.8 0.00 0.00 0.00 89 1016.2
20260507055054 14 92 0.0 4.8 0.00 0.00 0.00 89 1016.3
20260507054636 14 92 3.2 6.4 0.00 0.00 0.00 89 1016.1
20260507054054 14 0 1.6 6.4 0.00 0.00 0.00 89 1016.1
20260507053554 14 86 0.0 4.8 0.00 0.00 0.00 89 1016.2
20260507053054 14 0 0.0 4.8 0.00 0.00 0.00 88 1016.1
20260507052555 14 92 1.6 4.8 0.00 0.00 0.00 88 1016.1
20260507052055 14 34 0.0 4.8 0.00 0.00 0.00 88 1016.1
20260507051553 14 34 0.0 4.8 0.00 0.00 0.00 88 1016.1
20260507051055 14 34 1.6 4.8 0.00 0.00 0.00 87 1016.1
20260507050555 14 0 0.0 4.8 0.00 0.00 0.00 87 1016.1
20260507050057 15 22 0.0 4.8 0.00 0.00 0.00 87 1016.1
20260507045555 15 57 0.0 3.2 0.00 0.00 0.00 87 1016.1
20260507045055 15 0 0.0 3.2 0.00 0.00 0.00 87 1016.0
20260507044601 15 0 0.0 0.0 0.00 0.00 0.00 86 1016.0
20260507044054 15 0 0.0 0.0 0.00 0.00 0.00 86 1016.0
20260507043554 15 0 0.0 0.0 0.00 0.00 0.00 86 1016.0
20260507043055 15 0 0.0 4.8 0.00 0.00 0.00 85 1016.0
20260507042554 15 0 0.0 4.8 0.00 0.00 0.00 85 1016.0
20260507042054 15 77 0.0 3.2 0.00 0.00 0.00 85 1016.0
20260507041601 15 0 0.0 3.2 0.00 0.00 0.00 85 1015.9
20260507041051 15 0 0.0 6.4 0.00 0.00 0.00 85 1015.8
20260507040555 15 0 1.6 6.4 0.00 0.00 0.00 85 1015.8
20260507040055 15 81 1.6 4.8 0.00 0.00 0.00 84 1015.6
20260507035555 15 0 0.0 0.0 0.00 0.00 0.00 84 1015.8
20260507035055 15 0 0.0 1.6 0.00 0.00 0.00 84 1015.9
20260507034559 15 0 0.0 1.6 0.00 0.00 0.00 84 1015.8
20260507034056 15 0 0.0 4.8 0.00 0.00 0.00 84 1015.6
20260507033558 15 0 0.0 4.8 0.00 0.00 0.00 84 1015.5
20260507033104 15 0 1.6 4.8 0.00 0.00 0.00 84 1015.4
20260507032555 15 0 0.0 3.2 0.00 0.00 0.00 83 1015.5
20260507032055 15 0 0.0 3.2 0.00 0.00 0.00 83 1015.4
20260507031606 15 0 0.0 3.2 0.00 0.00 0.00 83 1015.4
20260507031056 15 0 0.0 4.8 0.00 0.00 0.00 83 1015.3
20260507030555 15 0 0.0 8.0 0.00 0.00 0.00 83 1015.3
20260507030058 15 292 0.0 9.7 0.00 0.00 0.00 83 1015.3
20260507025559 15 227 3.2 9.7 0.00 0.00 0.00 83 1015.2
20260507025055 15 273 1.6 9.7 0.00 0.00 0.00 82 1015.2
20260507024554 15 294 4.8 11.3 0.00 0.00 0.00 81 1015.2
20260507024056 16 271 6.4 11.3 0.00 0.00 0.00 81 1015.2
20260507023555 16 263 1.6 9.7 0.00 0.00 0.00 80 1015.1
20260507023103 16 185 3.2 8.0 0.00 0.00 0.00 80 1015.0
20260507022555 16 196 1.6 14.5 0.00 0.00 0.00 80 1015.1
20260507022055 16 244 4.8 14.5 0.00 0.00 0.00 80 1015.0
20260507021553 16 273 4.8 17.7 0.00 0.00 0.00 80 1015.1
20260507021057 16 273 9.7 17.7 0.00 0.00 0.00 78 1015.0
20260507020556 16 244 8.0 19.3 0.00 0.00 0.00 78 1014.9
20260507020057 16 260 9.7 19.3 0.00 0.00 0.00 78 1014.9
20260507015554 16 261 12.9 19.3 0.00 0.00 0.00 76 1014.8
20260507015055 16 272 9.7 17.7 0.00 0.00 0.00 76 1014.8
20260507014604 16 279 9.7 20.9 0.00 0.00 0.00 76 1014.9
20260507014056 16 276 4.8 20.9 0.00 0.00 0.00 76 1014.9